Wind_Speed
12 14 15 17 17 17 17 18 20 22 24 26 29 32 34 35 37 39 40 41 42 42 43 43 41 40 40 40 41 43 46 49 51 53 54 56 58 59 59 58 57 57 58 59
15 15 17 18 18 18 18 19 20 23 25 27 30 33 36 37 39 40 41 42 42 42 43 43 42 41 40 41 42 45 48 51 52 54 55 57 57 57 55 53 52 51 52 53
17 18 18 18 18 18 18 20 22 24 27 30 32 35 38 39 41 42 43 43 43 43 44 43 42 42 42 42 44 47 50 52 54 54 56 56 56 54 50 47 46 45 45 46
19 19 19 18 19 18 18 21 24 26 28 31 33 36 38 40 42 43 44 44 45 45 45 44 44 43 43 44 46 49 52 53 54 54 56 55 54 50 46 42 39 37 36 37
19 20 21 19 17 18 19 21 24 27 29 31 34 38 40 42 44 45 46 47 47 47 46 46 45 44 44 45 47 50 52 53 53 54 55 54 52 47 42 37 33 30 29 30
20 20 20 20 19 20 22 23 25 28 30 33 35 38 41 44 45 46 48 48 48 48 48 47 46 45 45 46 47 49 52 52 52 52 53 52 49 44 39 34 29 25 22 23
20 20 21 20 21 22 24 26 28 30 32 35 38 40 42 44 45 47 48 48 48 48 48 47 46 45 45 46 47 49 51 51 51 51 51 50 46 41 36 31 26 20 16 17
19 20 22 21 21 23 25 27 29 31 33 36 39 42 44 46 47 48 48 48 48 48 47 47 47 45 45 46 46 48 50 50 49 50 49 47 43 39 34 29 23 16 11 11
19 20 21 21 22 23 25 27 29 31 34 37 40 43 45 47 48 48 49 48 48 47 46 47 47 46 45 45 46 47 48 48 48 48 47 45 41 37 32 27 21 14 8 6
20 20 21 22 23 24 26 28 30 33 36 39 41 44 46 48 48 48 48 48 47 46 46 46 46 45 45 44 44 45 46 47 48 46 44 43 39 35 30 25 19 13 7 4
19 20 21 23 24 25 27 29 32 35 38 40 42 44 46 48 48 48 48 47 46 46 45 45 45 45 44 43 43 44 45 46 46 45 43 40 37 34 29 24 19 13 7 2
19 20 21 23 25 26 28 31 34 37 39 41 43 44 45 47 48 47 47 46 45 45 45 45 45 44 43 42 42 42 43 44 44 44 42 39 36 32 28 23 19 14 8 1
20 21 22 24 26 27 30 33 36 39 41 42 42 43 44 46 46 47 46 46 45 45 44 44 44 43 42 41 40 41 41 42 42 42 40 37 34 31 27 23 18 13 9 2
21 22 24 26 28 30 32 35 38 40 42 43 42 42 43 45 46 46 46 46 46 45 44 44 43 42 41 40 39 39 39 40 41 41 39 36 33 30 26 21 17 12 8 3
23 24 26 28 30 32 35 38 40 42 43 43 42 41 42 44 45 45 46 46 46 45 45 44 43 42 40 38 37 37 38 38 39 39 37 35 32 28 24 20 15 11 7 4
26 27 29 31 33 35 37 39 41 42 43 43 42 40 41 43 45 45 46 46 46 45 44 43 42 40 39 36 35 35 36 36 37 37 35 34 31 28 23 19 14 10 6 3
31 32 33 34 36 38 39 41 42 43 43 42 41 40 41 42 44 45 45 46 46 45 44 43 41 39 38 35 34 34 34 34 35 35 34 33 31 28 23 17 14 9 5 3
35 35 36 37 38 39 40 40 41 41 41 41 40 40 40 41 42 43 43 44 44 45 44 42 40 38 37 34 32 32 32 32 33 34 33 32 30 28 24 18 14 10 6 3
37 37 37 38 38 39 39 39 39 39 39 40 40 40 39 39 40 41 42 42 42 42 42 41 40 38 36 33 31 30 29 30 31 32 32 31 29 27 24 20 16 11 8 5
41 40 40 40 40 40 39 38 38 38 39 39 40 39 39 39 38 39 40 40 40 41 41 40 39 37 35 32 30 28 27 27 29 30 30 29 28 26 23 21 17 14 10 7
43 43 43 42 42 41 39 37 37 38 38 38 39 39 38 38 37 37 37 38 38 39 39 39 37 36 34 31 29 26 25 24 26 27 28 28 27 25 23 20 18 15 13 10
46 45 44 43 43 41 38 37 38 39 39 38 39 38 38 37 35 35 35 35 35 36 37 37 36 34 32 30 28 25 23 22 22 24 25 26 26 25 23 21 19 17 15 13
49 48 46 44 43 41 38 38 39 40 40 40 39 39 38 35 33 33 33 32 32 33 35 35 34 33 31 29 26 24 21 19 20 20 22 23 23 23 22 21 20 19 17 15
53 51 49 45 43 40 38 40 41 40 39 38 38 38 37 35 32 31 30 30 30 31 32 33 33 31 30 28 25 23 20 17 17 17 18 19 20 21 20 20 19 18 18 16
56 54 50 46 42 41 42 42 41 40 38 37 38 37 35 34 32 30 29 29 28 29 30 31 31 30 28 27 24 22 19 16 14 13 14 15 16 17 18 18 18 17 16 16
57 54 52 48 45 43 43 43 41 39 38 37 37 36 34 33 33 31 29 28 27 27 28 29 30 29 27 26 23 21 18 15 12 11 10 11 12 13 14 15 15 16 16 15
58 57 54 51 48 46 45 44 41 40 39 38 37 35 34 34 33 32 30 28 27 27 27 27 28 27 26 25 22 20 17 14 12 10 8 7 7 8 9 11 12 12 13 14
Wind_Direction
333 332 329 327 327 327 327 329 333 334 336 337 337 338 338 337 335 334 334 333 331 330 330 329 326 323 320 318 317 318 318 318 317 315 313 311 308 302 296 290 283 276 268 262
329 327 322 320 319 321 323 327 332 334 335 336 337 337 338 338 337 337 335 334 332 332 332 330 328 325 322 321 322 322 323 323 321 319 317 316 313 308 302 295 287 280 271 262
324 322 319 314 318 321 323 326 331 332 333 335 336 336 337 338 338 337 336 335 334 334 333 332 330 327 325 324 325 326 326 326 325 324 322 320 318 314 309 301 292 283 273 262
321 320 320 317 317 318 322 326 329 330 331 333 334 335 337 337 337 337 336 336 335 335 334 334 332 330 328 328 328 329 330 329 329 328 327 326 323 321 316 309 299 288 274 261
319 320 318 316 316 318 323 326 327 328 331 333 335 336 336 337 337 337 337 337 336 336 336 336 334 331 330 330 331 332 333 333 332 332 332 331 330 327 323 317 308 295 278 262
318 318 317 318 320 321 322 326 329 331 333 335 336 337 336 336 337 337 337 337 336 336 335 336 335 333 332 332 333 334 335 336 336 335 336 336 335 333 330 325 316 302 283 261
315 317 316 318 320 323 327 330 332 334 335 336 336 336 336 335 335 336 336 336 336 336 335 335 335 334 333 334 335 336 337 338 338 339 339 340 340 339 336 333 327 314 291 260
314 314 314 320 322 326 328 331 333 334 335 336 336 335 335 335 335 336 336 336 336 335 335 335 336 335 335 336 337 338 340 341 341 342 343 344 345 344 343 341 338 328 303 257
312 313 316 320 323 327 330 332 333 334 335 335 335 334 334 335 335 336 336 336 336 335 335 336 337 337 337 337 338 340 342 344 345 345 346 348 348 348 348 346 344 338 321 253
310 313 317 321 324 328 330 331 332 332 333 334 334 334 335 336 337 336 336 336 336 336 336 337 338 338 338 338 339 341 344 346 348 348 349 350 351 352 352 353 350 344 330 257
309 312 317 321 325 327 329 330 330 331 332 334 335 335 336 338 339 339 338 338 338 338 338 338 339 339 339 339 341 343 345 348 350 351 352 352 354 355 356 356 356 353 340 271
308 312 317 321 324 326 327 328 329 330 332 334 336 337 339 340 342 342 342 341 340 339 339 339 340 340 340 340 342 344 347 349 351 353 355 355 356 357 359 360 360 360 358 314
304 309 315 319 322 323 325 326 327 329 332 334 335 337 339 342 345 345 344 343 342 340 340 340 341 342 342 342 343 345 348 350 353 355 357 358 359 360 1 3 4 6 8 23
303 308 313 316 319 321 321 322 325 327 330 332 333 335 338 342 345 347 346 345 343 342 341 341 342 343 343 343 344 346 349 352 354 356 358 360 1 2 3 4 6 10 16 35
305 309 312 315 317 317 318 319 321 324 328 330 331 332 336 341 345 347 347 346 345 343 342 342 343 344 344 344 345 348 351 354 356 357 360 2 3 3 4 7 8 13 24 60
307 309 310 312 313 314 315 316 318 321 324 326 328 330 333 338 342 345 346 346 346 345 344 343 344 345 345 346 347 349 352 355 357 359 1 4 5 5 5 7 10 15 30 73
306 306 307 308 309 310 311 313 315 317 320 323 325 327 331 335 339 342 344 345 346 346 345 344 344 345 346 347 348 350 353 356 358 0 3 5 7 7 8 9 12 17 30 85
303 303 304 305 305 306 308 309 312 314 316 318 320 323 326 331 335 338 341 343 345 345 345 345 345 346 347 348 349 351 354 357 359 1 4 7 10 12 14 16 19 24 35 87
296 297 298 298 300 302 304 306 307 310 313 315 316 319 322 326 330 334 338 341 344 344 345 344 345 346 347 349 349 351 354 357 0 3 6 9 12 16 20 24 27 34 46 74
288 290 292 293 296 298 299 301 303 305 308 311 313 316 319 322 326 331 334 338 342 344 344 345 345 345 347 349 349 350 353 357 1 5 8 12 15 18 22 27 32 38 48 66
286 287 289 291 293 295 295 297 299 301 304 307 309 313 316 318 322 327 331 335 339 342 343 344 344 344 346 348 349 349 352 356 1 6 10 14 17 21 26 30 34 41 49 62
286 287 289 289 291 292 292 292 294 297 299 301 305 309 312 315 319 323 327 332 336 339 342 343 343 343 344 346 348 349 350 354 359 4 10 15 19 24 30 35 39 45 51 61
285 286 286 287 289 288 288 287 289 291 294 297 301 305 308 311 315 321 325 328 332 337 339 341 341 341 342 344 345 347 348 350 355 2 9 15 21 26 32 38 44 49 54 64
283 284 283 284 283 282 280 281 285 288 290 294 297 300 303 306 311 316 321 324 328 333 336 338 340 340 340 342 343 344 345 346 350 358 6 14 20 27 33 40 48 55 59 65
281 281 281 280 277 275 274 276 280 283 285 289 293 296 299 303 308 314 318 321 325 328 332 335 337 338 338 339 340 341 340 340 343 351 0 10 19 26 33 40 47 56 63 67
277 277 277 276 273 271 271 274 277 279 279 283 285 289 294 298 303 308 313 316 319 322 326 331 334 335 336 336 337 337 337 335 334 338 346 359 12 24 33 41 48 56 64 72
273 273 274 273 272 270 271 272 273 274 275 275 278 283 287 291 296 301 307 310 314 317 320 325 330 331 332 332 333 333 332 330 325 325 330 339 357 18 33 41 49 57 66 74
Height
5852 5849 5847 5845 5842 5840 5837 5833 5829 5825 5820 5814 5808 5802 5797 5790 5783 5776 5768 5760 5752 5744 5735 5727 5718 5710 5703 5695 5688 5680 5672 5663 5654 5644 5633 5622 5611 5600 5590 5582 5576 5572 5571 5571
5849 5847 5844 5842 5839 5836 5833 5829 5825 5820 5816 5810 5804 5798 5791 5785 5777 5770 5762 5754 5745 5736 5728 5719 5710 5702 5694 5686 5678 5669 5660 5650 5639 5628 5617 5604 5592 5579 5567 5558 5551 5546 5544 5545
5847 5844 5842 5839 5836 5833 5829 5825 5821 5816 5812 5805 5799 5793 5786 5779 5771 5763 5755 5747 5738 5729 5720 5711 5702 5693 5684 5675 5667 5657 5647 5636 5625 5613 5601 5587 5573 5559 5547 5537 5530 5525 5522 5523
5843 5841 5838 5837 5832 5829 5825 5821 5816 5811 5806 5801 5795 5788 5781 5773 5765 5758 5749 5740 5731 5722 5713 5703 5693 5683 5674 5665 5656 5646 5636 5624 5612 5599 5586 5572 5557 5543 5531 5521 5513 5507 5504 5504
5840 5837 5834 5831 5828 5824 5821 5818 5813 5808 5802 5796 5790 5782 5774 5767 5759 5750 5741 5732 5723 5713 5704 5695 5685 5675 5666 5656 5646 5636 5625 5613 5600 5587 5573 5559 5544 5531 5519 5509 5501 5495 5492 5491
5835 5833 5830 5827 5824 5820 5817 5813 5808 5803 5797 5791 5784 5778 5771 5761 5753 5744 5735 5725 5716 5705 5696 5687 5677 5667 5658 5648 5638 5627 5616 5604 5591 5577 5563 5549 5534 5522 5510 5501 5492 5486 5483 5483
5832 5828 5825 5823 5819 5816 5812 5809 5803 5797 5791 5785 5778 5772 5765 5756 5748 5739 5729 5719 5709 5699 5688 5679 5670 5660 5650 5641 5630 5619 5608 5596 5583 5569 5555 5541 5528 5516 5505 5495 5487 5481 5478 5477
5828 5825 5823 5818 5814 5811 5808 5802 5797 5791 5786 5779 5772 5765 5758 5750 5741 5732 5723 5713 5703 5693 5682 5672 5663 5653 5644 5634 5623 5612 5601 5589 5576 5563 5550 5536 5523 5512 5501 5492 5485 5479 5476 5476
5824 5822 5817 5813 5810 5806 5802 5797 5792 5787 5781 5774 5768 5761 5753 5744 5735 5726 5716 5707 5697 5687 5676 5666 5656 5646 5637 5628 5617 5606 5595 5583 5571 5558 5545 5533 5521 5510 5500 5492 5485 5480 5477 5477
5818 5815 5812 5809 5805 5801 5797 5792 5787 5782 5776 5769 5763 5755 5747 5738 5729 5720 5710 5700 5690 5680 5671 5661 5650 5640 5631 5622 5612 5601 5590 5579 5567 5555 5543 5531 5520 5509 5500 5492 5486 5481 5479 5478
5813 5811 5808 5804 5800 5796 5792 5787 5782 5776 5770 5764 5757 5749 5741 5732 5723 5714 5704 5694 5684 5674 5665 5655 5645 5635 5626 5616 5607 5597 5587 5576 5564 5553 5541 5530 5520 5510 5501 5494 5488 5483 5480 5479
5809 5806 5803 5799 5795 5791 5787 5782 5777 5771 5764 5758 5751 5743 5735 5726 5717 5708 5698 5688 5679 5669 5659 5650 5640 5631 5622 5612 5603 5593 5584 5573 5562 5551 5540 5530 5520 5511 5503 5496 5490 5486 5483 5482
5803 5800 5797 5794 5790 5785 5781 5776 5771 5765 5758 5752 5745 5737 5729 5721 5712 5702 5693 5683 5674 5664 5655 5646 5636 5627 5618 5608 5600 5591 5581 5571 5561 5551 5540 5530 5521 5513 5505 5499 5493 5489 5486 5485
5796 5794 5791 5787 5783 5779 5774 5769 5764 5758 5752 5745 5739 5731 5724 5716 5707 5698 5689 5679 5670 5660 5651 5642 5632 5623 5614 5605 5597 5588 5579 5570 5560 5550 5540 5531 5522 5514 5507 5502 5497 5493 5490 5489
5789 5786 5783 5780 5776 5772 5767 5762 5757 5751 5745 5739 5732 5726 5718 5710 5702 5694 5685 5675 5666 5657 5647 5638 5629 5620 5611 5603 5595 5587 5578 5569 5560 5550 5541 5532 5524 5516 5510 5504 5499 5496 5493 5492
5781 5778 5775 5772 5768 5764 5759 5754 5749 5744 5738 5732 5726 5719 5713 5705 5697 5689 5681 5672 5663 5653 5644 5635 5626 5617 5609 5601 5593 5585 5577 5569 5560 5551 5542 5533 5525 5518 5512 5506 5502 5499 5497 5496
5773 5770 5767 5764 5760 5756 5751 5746 5741 5736 5731 5725 5720 5713 5707 5700 5692 5685 5676 5668 5659 5650 5641 5632 5623 5615 5607 5599 5591 5584 5577 5569 5561 5552 5543 5535 5527 5520 5513 5508 5504 5501 5500 5498
5765 5762 5759 5755 5751 5746 5742 5738 5733 5729 5724 5718 5713 5707 5701 5695 5688 5681 5673 5664 5655 5646 5638 5629 5620 5612 5604 5597 5590 5583 5576 5569 5562 5554 5545 5537 5529 5522 5516 5511 5507 5504 5502 5501
5755 5752 5748 5745 5741 5737 5733 5729 5725 5720 5716 5711 5705 5700 5695 5689 5682 5676 5668 5661 5652 5644 5635 5626 5618 5610 5603 5596 5589 5583 5576 5570 5563 5555 5548 5540 5532 5525 5519 5514 5509 5506 5504 5503
5744 5741 5738 5734 5731 5727 5724 5720 5716 5712 5707 5702 5697 5693 5688 5682 5676 5670 5663 5656 5649 5640 5632 5624 5616 5609 5601 5594 5588 5582 5577 5571 5565 5558 5550 5543 5536 5529 5523 5518 5513 5510 5507 5506
5731 5729 5726 5723 5720 5716 5713 5710 5706 5702 5698 5693 5689 5684 5680 5675 5670 5664 5658 5651 5644 5637 5629 5622 5614 5607 5600 5593 5587 5582 5577 5572 5566 5560 5553 5547 5540 5533 5528 5522 5518 5514 5511 5510
5717 5715 5712 5710 5707 5704 5702 5699 5696 5692 5688 5684 5680 5676 5671 5667 5662 5657 5652 5646 5640 5633 5626 5619 5612 5605 5598 5592 5587 5581 5577 5572 5567 5562 5557 5550 5544 5538 5533 5528 5523 5520 5516 5514
5701 5700 5698 5696 5694 5692 5690 5687 5685 5681 5678 5675 5671 5667 5663 5658 5654 5650 5645 5640 5634 5628 5622 5616 5609 5603 5597 5591 5585 5581 5576 5572 5568 5564 5559 5554 5549 5544 5538 5534 5529 5526 5522 5520
5685 5684 5683 5681 5680 5678 5677 5675 5672 5670 5667 5664 5661 5657 5654 5650 5647 5643 5638 5634 5629 5624 5618 5612 5606 5600 5595 5589 5584 5579 5575 5572 5569 5565 5562 5557 5553 5548 5544 5540 5536 5532 5530 5527
5668 5668 5667 5666 5666 5665 5663 5661 5660 5658 5656 5653 5651 5648 5644 5641 5638 5635 5631 5627 5623 5618 5614 5609 5603 5597 5592 5587 5582 5578 5574 5571 5569 5566 5563 5560 5556 5553 5549 5545 5542 5539 5536 5534
5650 5650 5650 5650 5650 5650 5649 5648 5646 5645 5644 5642 5640 5638 5635 5632 5629 5627 5624 5621 5617 5613 5609 5604 5599 5594 5589 5584 5580 5576 5573 5570 5568 5566 5564 5562 5559 5556 5553 5550 5547 5545 5543 5541
5631 5631 5631 5632 5633 5633 5633 5633 5632 5632 5631 5630 5629 5627 5625 5623 5621 5619 5616 5614 5610 5607 5603 5599 5595 5590 5585 5581 5577 5573 5570 5568 5566 5565 5563 5562 5560 5559 5556 5554 5552 5550 5548 5547